This demonstration page uses our WeatherBlox Daily Observations layout. Learn more.

Hourly Observations for November 20, 2020

Temp ( °F °C ) Dew Point ( °F °C ) Humidity (%) Winds ( mph kmh ) Pressure ( in mb ) Visibility ( mi km ) Precip ( " mm )
12:15 am 00:15 Clear 45 7 32 0 61 61 S 7 11 30.41 1030 10 16.0934 0 0
12:35 am 00:35 Clear 43 6 32 0 66 66 SSW 6 9 30.42 1030 10 16.0934 0 0
12:55 am 00:55 Clear 43 6 32 0 66 66 S 3 6 30.42 1030 10 16.0934 0 0
1:15 am 01:15 Clear 43 6 32 0 66 66 Calm 30.42 1030 10 16.0934 0 0
1:35 am 01:35 Clear 41 5 32 0 70 70 S 3 6 30.42 1030 10 16.0934 0 0
1:55 am 01:55 Clear 39 4 32 0 75 75 S 5 7 30.43 1030 10 16.0934 0 0
2:15 am 02:15 Clear 37 3 32 0 81 81 S 3 6 30.44 1031 10 16.0934 0 0
2:35 am 02:35 Clear 36 2 32 0 87 87 S 5 7 30.43 1030 10 16.0934 0 0
2:55 am 02:55 Clear 34 1 32 0 93 93 SSW 3 6 30.43 1030 10 16.0934 0 0
3:15 am 03:15 Clear 36 2 32 0 87 87 S 6 9 30.43 1030 10 16.0934 0 0
3:35 am 03:35 Clear 36 2 32 0 87 87 SSW 5 7 30.43 1030 10 16.0934 0 0
3:55 am 03:55 Clear 37 3 32 0 81 81 S 5 7 30.42 1030 10 16.0934 0 0
4:15 am 04:15 Clear 37 3 30 -1 75 75 Calm 30.43 1030 10 16.0934 0 0
4:35 am 04:35 Clear 36 2 32 0 87 87 Calm 30.43 1030 10 16.0934 0 0
4:55 am 04:55 Clear 34 1 32 0 93 93 Calm 30.42 1030 10 16.0934 0 0
5:15 am 05:15 Clear 34 1 32 0 93 93 S 3 6 30.42 1030 10 16.0934 0 0
5:35 am 05:35 Clear 32 0 32 0 100 100 Calm 30.43 1031 10 16.0934 0 0
5:55 am 05:55 Clear 34 1 32 0 93 93 Calm 30.43 1030 10 16.0934 0 0
6:15 am 06:15 Clear 34 1 30 -1 87 87 Calm 30.44 1031 10 16.0934 0 0
6:35 am 06:35 Clear 32 0 30 -1 93 93 SSW 3 6 30.44 1031 10 16.0934 0 0
6:55 am 06:55 Clear 32 0 30 -1 93 93 Calm 30.45 1031 10 16.0934 0 0
7:15 am 07:15 Sunny 32 0 30 -1 93 93 Calm 30.45 1031 10 16.0934 0 0
7:35 am 07:35 Sunny 32 0 32 0 100 100 Calm 30.45 1031 10 16.0934 0 0
7:55 am 07:55 Sunny 34 1 32 0 93 93 Calm 30.45 1031 10 16.0934 0 0
8:15 am 08:15 Sunny 37 3 32 0 81 81 S 3 6 30.46 1031 10 16.0934 0 0
8:35 am 08:35 Sunny 41 5 32 0 70 70 S 6 9 30.45 1031 10 16.0934 0 0
8:55 am 08:55 Sunny 43 6 32 0 66 66 S 6 9 30.44 1031 10 16.0934 0 0
9:15 am 09:15 Sunny 45 7 34 1 66 66 SW 3 6 30.44 1031 10 16.0934 0 0
9:35 am 09:35 Sunny 45 7 34 1 66 66 Calm 30.43 1031 10 16.0934 0 0
9:55 am 09:55 Sunny 46 8 34 1 62 62 S 3 6 30.43 1030 10 16.0934 0 0
10:15 am 10:15 Sunny 50 10 34 1 54 54 Calm 30.43 1030 10 16.0934 0 0
10:35 am 10:35 Sunny 52 11 36 2 54 54 Calm 30.41 1030 10 16.0934 0 0
10:55 am 10:55 Sunny 52 11 36 2 54 54 S 3 6 30.41 1030 10 16.0934 0 0
11:15 am 11:15 Sunny 54 12 36 2 51 51 SSE 3 6 30.4 1030 10 16.0934 0 0
11:35 am 11:35 Sunny 55 13 36 2 47 47 S 6 9 30.38 1029 10 16.0934 0 0
11:55 am 11:55 Sunny 57 14 36 2 44 44 S 6 9 30.37 1028 10 16.0934 0 0
12:15 pm 12:15 Sunny 59 15 37 3 45 45 SSE 5 7 30.36 1028 10 16.0934 0 0
12:35 pm 12:35 Sunny 59 15 37 3 45 45 S 5 7 30.35 1028 10 16.0934 0 0
12:55 pm 12:55 Sunny 61 16 37 3 42 42 SSE 5 7 30.34 1027 10 16.0934 0 0
1:15 pm 13:15 Sunny 61 16 37 3 42 42 S 6 9 30.33 1027 10 16.0934 0 0
1:35 pm 13:35 Sunny 63 17 37 3 39 39 S 7 11 30.32 1027 10 16.0934 0 0
1:55 pm 13:55 Sunny 63 17 37 3 39 39 S 7 11 30.31 1026 10 16.0934 0 0
2:15 pm 14:15 Sunny 64 18 39 4 40 40 SSW 8 13 30.3 1026 10 16.0934 0 0
2:55 pm 14:55 Sunny 64 18 39 4 40 40 S 8 13 30.29 1026 10 16.0934 0 0
3:15 pm 15:15 Sunny 64 18 37 3 37 37 S 9 15 30.29 1026 10 16.0934 0 0
3:35 pm 15:35 Sunny 64 18 37 3 37 37 S 8 13 30.29 1026 10 16.0934 0 0
3:55 pm 15:55 Sunny 63 17 37 3 39 39 S 8 13 30.31 1026 10 16.0934 0 0
4:15 pm 16:15 Sunny 63 17 39 4 42 42 S 8 13 30.31 1026 10 16.0934 0 0
4:35 pm 16:35 Sunny 61 16 37 3 42 42 SSW 8 13 30.31 1026 10 16.0934 0 0
4:55 pm 16:55 Clear 59 15 37 3 45 45 SSW 7 11 30.31 1026 10 16.0934 0 0
5:15 pm 17:15 Clear 59 15 37 3 45 45 SSW 6 9 30.31 1026 10 16.0934 0 0
5:35 pm 17:35 Clear 59 15 37 3 45 45 SSW 6 9 30.32 1027 10 16.0934 0 0
5:55 pm 17:55 Clear 57 14 37 3 48 48 SSW 6 9 30.33 1027 10 16.0934 0 0
6:15 pm 18:15 Clear 55 13 37 3 51 51 SSW 5 7 30.33 1027 10 16.0934 0 0
6:35 pm 18:35 Clear 54 12 39 4 58 58 SSW 6 9 30.32 1027 10 16.0934 0 0
6:55 pm 18:55 Clear 52 11 39 4 62 62 SW 3 6 30.33 1027 10 16.0934 0 0
7:15 pm 19:15 Clear 50 10 39 4 67 67 SSW 5 7 30.33 1027 10 16.0934 0 0
7:35 pm 19:35 Clear 48 9 39 4 71 71 SW 6 9 30.33 1027 10 16.0934 0 0
7:55 pm 19:55 Clear 50 10 39 4 67 67 SW 5 7 30.33 1027 10 16.0934 0 0
8:15 pm 20:15 Clear 46 8 37 3 71 71 SW 5 7 30.33 1027 10 16.0934 0 0
8:35 pm 20:35 Clear 48 9 39 4 71 71 Calm 30.34 1027 10 16.0934 0 0
8:55 pm 20:55 Clear 50 10 37 3 62 62 S 3 6 30.34 1027 10 16.0934 0 0
9:15 pm 21:15 Clear 50 10 37 3 62 62 SSE 3 6 30.34 1027 10 16.0934 0 0
9:35 pm 21:35 Clear 48 9 37 3 66 66 Calm 30.34 1027 10 16.0934 0 0
9:55 pm 21:55 Clear 45 7 37 3 76 76 Calm 30.35 1028 10 16.0934 0 0
10:15 pm 22:15 Clear 45 7 37 3 76 76 Calm 30.36 1028 10 16.0934 0 0
10:35 pm 22:35 Clear 45 7 37 3 76 76 Calm 30.36 1028 10 16.0934 0 0
10:55 pm 22:55 Clear 45 7 39 4 81 81 Calm 30.35 1028 10 16.0934 0 0
11:15 pm 23:15 Clear 43 6 37 3 81 81 Calm 30.34 1028 10 16.0934 0 0
11:35 pm 23:35 Clear 43 6 39 4 87 87 Calm 30.34 1028 10 16.0934 0 0
11:55 pm 23:55 Clear 43 6 37 3 81 81 Calm 30.35 1028 10 16.0934 0 0

Powered by AerisWeather